Weather History for KCSV - July, 2013

Change the Weather History Date:

Tuesday, July 23, 2013

  Actual Average Record
Temperature  
Mean Temperature 76 °F 75 °F  
Max Temperature 81 °F 84 °F 93 °F (1991)
Min Temperature 70 °F 66 °F 59 °F (1981)
Degree Days  
Heating Degree Days 0    
Month to date heating degree days 0  
Since 1 June heating degree days 0  
Since 1 July heating degree days 0  
Cooling Degree Days 11    
Month to date cooling degree days 202  
Year to date cooling degree days 476  
Since 1 June cooling degree days 396  
Growing Degree Days 25 (Base 50)    
Moisture  
Dew Point 69 °F    
Average Humidity 83    
Maximum Humidity 97    
Minimum Humidity 69    
Precipitation  
Precipitation 0.00 in 0.17 in 1.27 in (1965)
Month to date precipitation 8.71 3.82  
Year to date precipitation 42.60 32.80  
Sea Level Pressure  
Sea Level Pressure 29.93 in    
Wind  
Wind Speed 5 mph (WSW)    
Max Wind Speed 10 mph    
Max Gust Speed 16 mph    
Visibility 7 miles    
Events Fog    
T = Trace of Precipitation, MM = Missing Value Source: NWS Daily Summary

Daily Weather History Graph

Daily Weather History Graph

Search for Another Location

Airport or City:

Trip Planner

Search our weather history database for the weather conditions in past years. The results will help you decide how hot, cold, wet, or windy it might be!

Date:

Astronomy

Jul. 23, 2013 Rise Set
Actual Time 5:41 AM CDT 7:52 PM CDT
Civil Twilight 5:12 AM CDT 8:20 PM CDT
Nautical Twilight 4:36 AM CDT 8:56 PM CDT
Astronomical Twilight 3:58 AM CDT 9:34 PM CDT
Moon 8:25 PM CDT (7/23) 6:44 AM CDT (7/23)
Length of Visible Light 15h 08m
Length of Day
14h 11m
Full, 99% of the Moon is Illuminated
Jul 23
Full
Jul 29
Last Quarter
Aug 6
New
Aug 14
First Quarter
Aug 20
Full

Hourly Weather History & Observations

Time (CDT) Temp. Heat Index Dew Point Humidity Pressure Visibility Wind Dir Wind Speed Gust Speed Precip Events Conditions
12:37 AM 69.8 °F - 66.2 °F 88% 30.00 in 10.0 mi West 8.1 mph 16.1 mph N/A   Overcast
12:53 AM 70.0 °F - 66.9 °F 90% 29.93 in 10.0 mi West 8.1 mph - N/A   Overcast
1:53 AM 70.0 °F - 66.9 °F 90% 29.93 in 9.0 mi West 9.2 mph - N/A   Overcast
2:51 AM 69.8 °F - 66.2 °F 88% 29.99 in 4.0 mi West 6.9 mph - N/A   Overcast
2:53 AM 70.0 °F - 66.9 °F 90% 29.93 in 4.0 mi West 8.1 mph - N/A   Overcast
3:53 AM 70.0 °F - 68.0 °F 93% 29.92 in 4.0 mi West 4.6 mph - N/A   Overcast
4:17 AM 69.8 °F - 68.0 °F 94% 29.99 in 5.0 mi WSW 8.1 mph - N/A   Overcast
4:53 AM 70.0 °F - 68.0 °F 93% 29.93 in 5.0 mi West 4.6 mph - N/A   Overcast
5:06 AM 71.6 °F - 68.0 °F 88% 29.99 in 5.0 mi West 4.6 mph - N/A   Overcast
5:34 AM 69.8 °F - 68.0 °F 94% 29.99 in 1.8 mi WSW 3.5 mph - N/A   Overcast
5:53 AM 70.0 °F - 68.0 °F 93% 29.93 in 0.5 mi Variable 3.5 mph - N/A Fog Fog
6:02 AM 69.8 °F - 68.0 °F 94% 29.98 in 0.2 mi WSW 4.6 mph - N/A Fog Fog
6:53 AM 70.0 °F - 68.0 °F 93% 29.93 in 0.2 mi Variable 3.5 mph - N/A Fog Fog
7:08 AM 71.6 °F - 69.8 °F 94% 29.98 in 0.5 mi SW 4.6 mph - N/A Fog Fog
7:23 AM 71.6 °F - 69.8 °F 94% 29.97 in 1.0 mi SW 4.6 mph - N/A   Overcast
7:31 AM 71.6 °F - 69.8 °F 94% 29.97 in 3.0 mi Variable 3.5 mph - N/A   Overcast
7:53 AM 72.0 °F - 69.1 °F 91% 29.91 in 7.0 mi South 3.5 mph - N/A   Overcast
8:09 AM 73.4 °F - 69.8 °F 88% 29.96 in 10.0 mi Calm Calm - N/A   Mostly Cloudy
8:38 AM 73.4 °F - 68.0 °F 83% 29.99 in 10.0 mi WSW 6.9 mph - N/A   Mostly Cloudy
8:53 AM 73.9 °F - 69.1 °F 85% 29.94 in 10.0 mi Variable 4.6 mph - N/A   Overcast
9:03 AM 73.4 °F - 68.0 °F 83% 29.99 in 10.0 mi SW 3.5 mph - N/A   Overcast
9:50 AM 77.0 °F - 69.8 °F 78% 30.00 in 10.0 mi West 3.5 mph - N/A   Mostly Cloudy
9:53 AM 75.9 °F - 69.1 °F 79% 29.94 in 10.0 mi Calm Calm - N/A   Mostly Cloudy
10:07 AM 77.0 °F - 69.8 °F 78% 30.01 in 10.0 mi WSW 5.8 mph - N/A   Overcast
10:53 AM 78.1 °F - 69.1 °F 74% 29.93 in 10.0 mi West 5.8 mph - N/A   Mostly Cloudy
11:53 AM 77.0 °F - 70.0 °F 79% 29.91 in 9.0 mi Variable 4.6 mph - N/A   Mostly Cloudy
12:53 PM 78.1 °F - 70.0 °F 76% 29.89 in 10.0 mi SW 8.1 mph - N/A   Scattered Clouds
1:53 PM 77.0 °F - 69.1 °F 76% 29.88 in 10.0 mi Variable 6.9 mph - N/A   Partly Cloudy
2:53 PM 80.1 °F 83.2 °F 70.0 °F 71% 29.86 in 10.0 mi West 9.2 mph - N/A   Mostly Cloudy
3:53 PM 79.0 °F - 70.0 °F 74% 29.85 in 10.0 mi West 8.1 mph - N/A   Partly Cloudy
4:53 PM 81.0 °F 84.4 °F 70.0 °F 69% 29.83 in 10.0 mi West 9.2 mph - N/A   Partly Cloudy
5:53 PM 79.0 °F - 71.1 °F 77% 29.82 in 10.0 mi SW 5.8 mph - N/A   Mostly Cloudy
6:12 PM 78.8 °F - 71.6 °F 78% 29.90 in 10.0 mi WSW 4.6 mph - N/A   Mostly Cloudy
6:53 PM 78.1 °F - 71.1 °F 79% 29.85 in 10.0 mi West 3.5 mph - N/A   Mostly Cloudy
7:53 PM 75.9 °F - 72.0 °F 87% 29.84 in 10.0 mi WSW 3.5 mph - N/A   Clear
8:53 PM 75.0 °F - 70.0 °F 84% 29.86 in 10.0 mi WSW 4.6 mph - N/A   Mostly Cloudy
9:53 PM 73.9 °F - 69.1 °F 85% 29.87 in 10.0 mi SW 3.5 mph - N/A   Partly Cloudy
10:53 PM 72.0 °F - 68.0 °F 87% 29.88 in 10.0 mi WSW 3.5 mph - N/A   Clear
11:53 PM 72.0 °F - 68.0 °F 87% 29.88 in 10.0 mi Variable 3.5 mph - N/A   Partly Cloudy